STARLINK-1709

Last updated on Fri Nov 06 2020 00:02:03 GMT+0000 (Coordinated Universal Time)

1 46561U 20070AF 20310.43619581 .00025874 00000-0 28700-3 0 9990 2 46561 53.0023 294.9347 0000763 61.5636 298.5453 15.62798135 5512
UTC large
Height (km)
Speed (km/s)
/
Latitude / Longitude
Inclination (degrees)
Orbital Period (minutes)
Azimuth
Elevation
Range (km)
Doppler Factor

Next 0 passes for location: London (51.5072 / 0.1276)

Sorry there are no passes over London.